Flag for U.S.A. Weather past 2 weeks in Alexandria, Virginia, U.S.A.

Now
30 °F

Passing clouds.


Feels Like: 19 °F
Forecast: 23 / 36 °F
Wind: 14 mph from Northwest

Location: Reagan National Airport

Current Time: Jan 28, 2015 at 12:19:57 AM

Latest Report: Jan 27, 2015 at 11:52 PM


Visibility: 10 mi

Pressure: 29.99 "Hg

Humidity: 51%

Dew point: 14 °F

Location of AlexandriaLocation

Historic Weather in Alexandria — Graph

°F

Alexandria temperature yesterday

Maximum temperature yesterday: 36 °F (at 1:52 PM)
Minimum temperature yesterday: 30 °F (at 12:52 AM)
Average temperature yesterday: 33 °F

Past Weeks' High & Low Weather Summary

 TemperatureHumidityPressure
High51 °F (Jan 25, 10:52 AM)88% (Jan 21, 1:52 PM)30.58 "Hg (Jan 21, 1:52 PM)
Low27 °F (Jan 14, 4:52 AM)34% (Jan 19, 4:52 PM)29.46 "Hg (Jan 24, 1:52 PM)
Average37 °F64%30.06 "Hg
* Reported Jan 12 10:52 PM — Jan 27 10:52 PM, Alexandria, Weather by CustomWeather, © 2014

Note: Actual official high and low records may vary slightly from our data, if they occured in-between our weather recording intervals... More about our weather records

Advertising

Alexandria weather history for previous 24 hours

 ConditionsComfort  
Time TempWeatherWind HumidityBarometerVisibility
10:52 PM
Jan 27
31 °FPassing clouds.17 mph52%29.96 "Hg10 mi
9:52 PM31 °FPassing clouds.14 mph54%29.93 "Hg10 mi
8:52 PM32 °FPassing clouds.16 mph54%29.91 "Hg10 mi
7:52 PM33 °FPassing clouds.17 mph54%29.90 "Hg10 mi
6:52 PM34 °FPassing clouds.16 mph59%29.88 "Hg10 mi
5:52 PM34 °FPartly cloudy.16 mph59%29.86 "Hg10 mi
4:52 PM35 °FBroken clouds.14 mph59%29.85 "Hg10 mi
3:54 PM36 °FPartly sunny.17 mph56%29.83 "Hg10 mi
2:52 PM36 °FBroken clouds.15 mph59%29.81 "Hg10 mi
1:52 PM36 °FOvercast.17 mph59%29.80 "Hg10 mi
12:52 PM35 °FPartly sunny.16 mph61%29.81 "Hg10 mi
11:52 AM34 °FCloudy.18 mph61%29.82 "Hg10 mi
10:52 AM33 °FMore clouds than sun.12 mph63%29.83 "Hg10 mi
9:52 AM32 °FOvercast.12 mph64%29.83 "Hg10 mi
8:52 AM32 °FOvercast.13 mph64%29.82 "Hg10 mi
7:52 AM32 °FLight snow. More clouds than sun.12 mph69%29.81 "Hg8 mi
6:52 AM31 °FOvercast.14 mph69%29.79 "Hg9 mi
5:52 AM31 °FLight snow. Overcast.15 mph69%29.77 "Hg9 mi
4:52 AM32 °FLight snow. Overcast.12 mph69%29.75 "Hg7 mi
3:52 AM31 °FLight snow. Mostly cloudy.13 mph73%29.75 "Hg7 mi
2:52 AM30 °FLight snow. Overcast.15 mph79%29.75 "Hg5 mi
1:52 AM30 °FLight snow. Mostly cloudy.17 mph75%29.75 "Hg4 mi
1:02 AM30 °FLight snow. Mostly cloudy.16 mph75%29.76 "Hg4 mi
12:52 AM30 °FLight snow. Mostly cloudy.14 mph72%29.76 "Hg5 mi
Weather by CustomWeather, © 2014

See weather overviewHow to use our weather pages